Main page
METAR-TAF:

METAR-TAF

Airports :

Abu Musa, Iran

latitude: 25-52-33N, longitude: 055-02-01E, elevation: 7 m

Current weather observation

The report was made 1 hour and 20 minutes ago, at 15:00 UTC
Wind 4 kt from the Northeast
Temperature 21°C
Humidity 64%
Pressure 1019 hPa
Visibility 10 km or more
Few clouds at a height of 3000 ft

METAR: OIBA 181500Z 05004KT 9999 FEW030 21/14 Q1019

Time: 19:50 (16:20 UTC)


TAF: missing

Weather observations and forecasts of more than 4000 airports (METAR and TAF reports).

The available stations are represented by yellow and red dots on the map.

Hover mouse over dot to see the name of the station.

Then click to see weather observations and forecasts.

To change the map : click on the green buttons with a black cross to zoom in, on the green button with a dash to zoom out, or on the green arrows for adjacent maps.


METAR-TAF: